OpenBCM V1.13 (Linux)

Packet Radio Mailbox

DB0FHN

[JN59NK Nuernberg]

 Login: GUEST





  
I0OJJ  > AMSAT    23.09.26 02:41l 325 Lines 15344 Bytes #999 (0) @ WW
BID : 7S0_IR0EQ
Read: OE5RCO
Subj: 2Line Orbital Elements
Path: DB0FHN<DB0FFL<OE2XZR<OK1TOR<SR6DWH<SR1BSZ<EA2RCF<IR0EQ
Sent: 260923/0027z @:IR0EQ.ITA.EU [Rome] $:7S0_IR0EQ

>From i0ojj@rgate.ampr.org Wed Sep 23 02:27:45 2026
Received: from rgate.ampr.org by rgate.ampr.org (JNOS2.0q.1) with SMTP
	id AA10080 ; Wed, 23 Sep 2026 02:27:45 +0200
Received: by rgate.ampr.org with SMTP
	id AA10077 ; Wed, 23 Sep 2026 02:27:03 +0200
Message-Id: <10078@rgate.ampr.org>
>From: i0ojj@rgate.ampr.org

SB KEPS @ AMSAT  $ORB26266.1
2Line Orbital Elements 26266.AMSAT

QST de W1STR

AMSAT Orbital Elements for Amateur Satellites in TLE Format
>From Orbital Analysis Office
New England Sci-Tech STEM Education Center
Natick MA September 23, 2026
To all radio amateurs


These element sets describe the orbits of various satellites 
in use by the amateur radio community. For details see:
www.amsat.org/keplerian-elements-formats/

A daily update of element sets is available at:
www.amsat.org/tle/daily-bulletin.txt
or without bulletin text:
www.amsat.org/tle/dailytle.txt


AO-07
1 07530U 74089B   26265.01669086 -.00000034  00000-0  77152-4 0  9994
2 07530 101.9919 279.2751 0011984 307.5739 110.6698 12.53699643372659
UO-11
1 14781U 84021B   26265.47110456  .00000928  00000-0  99561-4 0  9998
2 14781  97.8185 230.0345 0006567 213.1311 146.9497 14.91006158271627
LO-19
1 20442U 90005G   26265.02002684  .00000053  00000-0  35557-4 0  9996
2 20442  98.8818 289.4783 0010486 283.3296  76.6719 14.34145078916277
AO-27
1 22825U 93061C   26265.19328644  .00000032  00000-0  29276-4 0  9991
2 22825  98.6787 332.5254 0008601 168.4715 191.6666 14.30962427720874
FO-29
1 24278U 96046B   26265.53332365  .00000000  00000-0  35989-4 0  9997
2 24278  98.5161 101.0580 0349455 203.6597 154.8133 13.53278514486330
GO-32
1 25397U 98043D   26265.56109829  .00000036  00000-0  35696-4 0  9993
2 25397  99.0161 260.8164 0000639 351.9939   8.1229 14.24443787465199
ISS
1 25544U 98067A   26265.27126732  .00007132  00000-0  13643-3 0  9994
2 25544  51.6312 179.6046 0004766 167.6102 192.5004 15.49224498586805
NO-44
1 26931U 01043C   26265.52273886  .00000046  00000-0  48226-4 0  9997
2 26931  67.0531 352.5113 0005864 273.1609  86.8822 14.31985584304386
SO-50
1 27607U 02058C   26265.18448791  .00000558  00000-0  83642-4 0  9995
2 27607  64.5525 188.8355 0071556 244.6308 114.7378 14.83222800278840
CO-55
1 27844U 03031E   26265.53955190  .00000181  00000-0  97174-4 0  9992
2 27844  98.6774 272.8917 0008389 262.2987  97.7240 14.24384398205538
RS-22
1 27939U 03042A   26265.66082406  .00000725  00000-0  11951-3 0  9996
2 27939  98.3482  92.8042 0010598 325.5168 127.9842 14.73609290229900
CO-65
1 32785U 08021C   26265.60398350  .00003041  00000-0  19004-3 0  9996
2 32785  97.8386 249.1635 0010309  62.6885 297.5392 15.10217017999892
CO-66
1 32791U 08021J   26265.50658039  .00013542  00000-0  39125-3 0  9998
2 32791  97.7570 268.3111 0002050  26.3041 333.8306 15.35783185  2200
RS-30
1 32953U 08025A   26265.55743119  .00000020  00000-0  71403-4 0  9994
2 32953  82.5013 294.8802 0020730  99.1591 261.1835 12.43183046831798
SRMSAT
1 37841U 11058D   26265.14961861  .00000351  00000-0  46391-4 0  9991
2 37841  19.9708 192.5647 0011814 190.1101 301.8361 14.11593751771533
ZACUBE-1
1 39417U 13066B   26265.43824777  .00003305  00000-0  25405-3 0  9993
2 39417  97.8161 228.2913 0038694 287.2544  72.4448 15.01861170695321
Delfi-N3xt
1 39428U 13066N   26265.25500117  .00004047  00000-0  34707-3 0  9993
2 39428  97.8288 185.5232 0071174 242.9065 116.4883 14.96144733689134
GOMX-1
1 39430U 13066Q   26265.61932877  .00001185  00000-0  18236-3 0  9997
2 39430  97.6436  99.9412 0129061 123.8920 237.4642 14.69715408684229
LO-74
1 39440U 13066AA  26265.57594945  .00002250  00000-0  20811-3 0  9999
2 39440  97.8992 215.0476 0058405  64.8924 295.8341 14.94305688691530
AO-73
1 39444U 13066AE  26265.46302710  .00004640  00000-0  28088-3 0  9997
2 39444  97.8393 239.0853 0033780 230.5454 129.2785 15.10665668694343
DTUSAT-2
1 40030U 14033W   26265.62146261  .00004804  00000-0  25329-3 0  9997
2 40030  98.0924 269.6500 0006025 260.2148  99.8403 15.16092268667445
LILACSAT-2
1 40908U 15049K   26265.56724324  .00013086  00000-0  20023-3 0  9992
2 40908  97.4556 306.2743 0004707 246.8651 113.2106 15.54499339610861
Lapan A3
1 41603U 16040E   26265.62103598  .00002425  00000-0  76783-4 0  9998
2 41603  97.1573 258.6452 0011098  35.0405 325.1567 15.33635156569744
CAS-2T
1 41847U 16066G   26265.19636770  .00000897  00000-0  13460-3 0  9994
2 41847  98.3747 339.8122 0340940 194.9664 164.1241 14.44853993518802
TechnoSat
1 42829U 17042E   26265.44021772  .00002626  00000-0  18640-3 0  9995
2 42829  97.4410  59.5070 0018668 119.8544 240.4541 15.05438435501339
AO-91
1 43017U 17073E   26265.53782497  .00005614  00000-0  23946-3 0  9992
2 43017  97.4545 130.7642 0146843 352.7891   7.1227 15.14006330480111
S-Net D
1 43186U 18014G   26265.55265845  .00003606  00000-0  18351-3 0  9993
2 43186  97.5249 169.7279 0009399  49.0116 311.1929 15.17430696473521
S-Net B
1 43187U 18014H   26265.17043165  .00003198  00000-0  16326-3 0  9997
2 43187  97.5254 169.3372 0009957  45.8873 314.3178 15.17396189473464
S-Net A
1 43188U 18014J   26265.55100027  .00003553  00000-0  18078-3 0  9992
2 43188  97.5266 169.9432 0009833  45.4699 314.7336 15.17439914473527
S-Net C
1 43189U 18014K   26265.50462296  .00003332  00000-0  16996-3 0  9999
2 43189  97.5283 169.9866 0010988  38.1518 322.0491 15.17389037472062
Ten-Koh
1 43677U 18084G   26265.51542750  .00001042  00000-0  81778-4 0  9990
2 43677  98.0711 101.9966 0009904 146.3950 213.7904 15.03258057430781
PO-101
1 43678U 18084H   26265.58994753  .00000971  00000-0  81669-4 0  9991
2 43678  98.1172 106.0860 0012183 202.2559 157.8137 15.00744071430827
QO-100
1 43700U 18090A   26265.56339821  .00000000  00000-0  00000-0 0  9990
2 43700   0.0262 165.0076 0001211  15.9781  49.0346  1.00270360 28653
MinXSS-2
1 43758U 18099A   26265.49222120  .00036077  00000-0  56102-3 0  9997
2 43758  97.4445 345.0705 0005585 257.8779 102.1849 15.53831803429203
AO-95
1 43770U 18099N   26265.41366081  .00007350  00000-0  26717-3 0  9999
2 43770  97.4288 325.3740 0008250  15.1474 345.0011 15.28535689428068
SNUSat 2
1 43782U 18099AA  26265.40647138  .00004987  00000-0  21418-3 0  9992
2 43782  97.3963 317.3303 0008697 321.5775  38.4841 15.23114777427822
SnugLite
1 43784U 18099AC  26265.12235752  .00006960  00000-0  25004-3 0  9996
2 43784  97.3772 318.5207 0001464 337.4468  22.6707 15.28969325428120
ITASat 1
1 43786U 18099AE  26265.54419348  .00004415  00000-0  20723-3 0  9995
2 43786  97.3934 315.1297 0012506  19.9641 340.2081 15.20089251427696
EAGLET 1
1 43790U 18099AJ  26265.12370218  .00002160  00000-0  12394-3 0  9996
2 43790  97.4138 312.2120 0011339  19.0689 341.0965 15.13545533426991
ESEO
1 43792U 18099AL  26265.55806253  .00000827  00000-0  63147-4 0  9999
2 43792  97.3907 298.7524 0012071  10.2345 349.9125 15.04485407426446
JO-97
1 43803U 18099AX  26265.08987871  .00011700  00000-0  33070-3 0  9999
2 43803  97.4038 328.4073 0003829 283.8344  76.2474 15.36488973428493
Suomi 100
1 43804U 18099AY  26265.42749870  .00008535  00000-0  29245-3 0  9994
2 43804  97.4089 325.5447 0007950 298.7770  61.2672 15.30421373428286
ISAT
1 43879U 18111D   26264.79202454  .00774757  30158-3  11826-2 0  9993
2 43879  97.5695 209.3864 0010269 144.5257 215.6708 16.04382360426400
UWE-4
1 43880U 18111E   26264.78778592  .00033261  00000-0  54911-3 0  9996
2 43880  97.5816 198.0535 0005450   3.3232 356.8056 15.52185618425735
Prox-1
1 44339U 19036A   26264.98861442  .00010005  00000-0  91987-3 0  9997
2 44339  23.9934 186.5711 0005528  81.8951 278.2176 14.92630077387949
Taurus 1
1 44530U 19059C   26265.61512149  .00003440  00000-0  54483-3 0  9998
2 44530  98.6497  76.6136 0008491  11.7888 348.3515 14.72939068372982
TO-108
1 44881U 19093C   26265.57648395  .00000643  00000-0  78290-4 0  9998
2 44881  97.7448 335.3941 0014752 122.6379 237.6262 14.86642567365880
RS-44
1 44909U 19096E   26265.49480778  .00000036  00000-0  10696-3 0  9993
2 44909  82.5166 275.0437 0216332 276.9113  80.7424 12.79749443314799
SALSAT
1 46495U 20068K   26265.50109124  .00005282  00000-0  17906-3 0  9990
2 46495  97.8890 274.6032 0008312 330.4588  29.6181 15.31003317330243
CSS (TIANHE-1)
1 48274U 21035A   26265.20259022  .00014071  00000-0  17173-3 0  9994
2 48274  41.4679  92.9305 0002423 298.0346  62.0248 15.60181132308314
TeikyoSat 4
1 49396U 21102B   26265.55552367  .00001295  00000-0  83874-4 0  9997
2 49396  97.3625 291.2456 0010875 324.5860  35.4646 15.09790061267419
Z-Sat
1 49399U 21102E   26265.58705731  .00002039  00000-0  10072-3 0  9994
2 49399  97.3262 297.9582 0014551 266.9921  92.9648 15.18888278268222
KOSEN 1
1 49402U 21102H   26265.55583418  .00004792  00000-0  17773-3 0  9995
2 49402  97.3105 305.8558 0012243 216.2387 143.8025 15.28009083268882
HO-113
1 50466U 21131B   26265.58595720  .00000272  00000-0  97564-4 0  9997
2 50466  98.4968 357.4439 0004591 151.8123 208.3316 14.41429924249145
SNUGLITE 2
1 52899U 22065F   26265.12356418  .00000603  00000-0  12288-3 0  9992
2 52899  98.2344  49.8704 0008666  81.7625 278.4560 14.64494470225185
UmKA 1 (RS40S)
1 57172U 23091G   26265.57262471  .00004251  00000-0  19034-3 0  9994
2 57172  97.4952 323.9037 0013638 134.8728 225.3618 15.21737821178810
CubeBel-2 (EU11S)
1 57175U 23091K   26265.55153312  .00008702  00000-0  29062-3 0  9995
2 57175  97.4955 329.7332 0010597 126.0280 234.1944 15.31225471179191
RS-38S
1 57189U 23091Z   26265.57978962  .00012560  00000-0  32889-3 0  9996
2 57189  97.5004 337.1680 0007950  85.7495 274.4658 15.38823443179659
SONATE-2
1 59112U 24043Q   26265.42028868  .00046914  00000-0  44844-3 0  9991
2 59112  97.5618  62.4200 0005367 199.2639 160.8419 15.66579597143074
